Weather History for Big Bear City, CA

Change the Weather History Date:

Wednesday, February 27, 2013

  Actual Average (KBUO) Record (KBUO)
Temperature  
Mean Temperature 29 °F -  
Max Temperature 41 °F 58 °F 75 °F (1999)
Min Temperature 17 °F 39 °F 33 °F (1998)
Degree Days  
Heating Degree Days 36    
Moisture  
Dew Point 3 °F    
Average Humidity 38    
Maximum Humidity 68    
Minimum Humidity 14    
Precipitation  
Precipitation 0.00 in - - ()
Sea Level Pressure  
Sea Level Pressure 30.29 in    
Wind  
Wind Speed 3 mph (ENE)    
Max Wind Speed 13 mph    
Max Gust Speed 22 mph    
Visibility 10 miles    
Events      
Averages and records for this station are not official NWS values.
T = Trace of Precipitation, MM = Missing Value Source: NWS Daily Summary

Daily Weather History Graph

Daily Weather History Graph

Search for Another Location

Airport:

Trip Planner

Search our weather history database for the weather conditions in past years. The results will help you decide how hot, cold, wet, or windy it might be!

Date:

Astronomy

Feb. 27, 2013 Rise Set
Actual Time 6:18 AM PST 5:42 PM PST
Civil Twilight 5:53 AM PST 6:07 PM PST
Nautical Twilight 5:24 AM PST 6:36 PM PST
Astronomical Twilight 4:55 AM PST 7:05 PM PST
Moon 7:59 PM PST (2/27) 7:03 AM PST (2/27)
Length of Visible Light 12h 14m
Length of Day
11h 23m
Waning Gibbous, 96% of the Moon is Illuminated
Feb 27
Waning Gibbous
Mar 4
Last Quarter
Mar 11
New
Mar 19
First Quarter
Mar 27
Full

Hourly Weather History & Observations

Time (PST) Temp. Windchill Dew Point Humidity Pressure Visibility Wind Dir Wind Speed Gust Speed Precip Events Conditions
12:15 AM 19.4 °F - 10.4 °F 68% 30.22 in 10.0 mi Calm Calm - N/A   Clear
12:35 AM 19.4 °F - 10.4 °F 68% 30.22 in 10.0 mi Calm Calm - N/A   Clear
12:55 AM 19.4 °F - 10.4 °F 68% 30.22 in 10.0 mi Calm Calm - N/A   Clear
1:15 AM 19.4 °F - 8.6 °F 63% 30.22 in 10.0 mi Calm Calm - N/A   Clear
1:35 AM 19.4 °F - 8.6 °F 63% 30.22 in 10.0 mi Calm Calm - N/A   Clear
1:55 AM 19.4 °F - 10.4 °F 68% 30.21 in 10.0 mi Calm Calm - N/A   Clear
2:15 AM 19.4 °F - 8.6 °F 63% 30.21 in 10.0 mi Calm Calm - N/A   Clear
2:35 AM 19.4 °F - 8.6 °F 63% 30.21 in 10.0 mi Calm Calm - N/A   Clear
2:55 AM 17.6 °F - 8.6 °F 68% 30.21 in 10.0 mi Calm Calm - N/A   Clear
3:15 AM 17.6 °F - 8.6 °F 68% 30.21 in 10.0 mi Calm Calm - N/A   Clear
3:35 AM 17.6 °F - 6.8 °F 63% 30.21 in 10.0 mi Calm Calm - N/A   Clear
3:55 AM 17.6 °F - 8.6 °F 68% 30.21 in 10.0 mi Calm Calm - N/A   Clear
4:15 AM 17.6 °F - 8.6 °F 68% 30.22 in 10.0 mi Calm Calm - N/A   Clear
4:35 AM 17.6 °F - 8.6 °F 68% 30.23 in 10.0 mi Calm Calm - N/A   Clear
4:55 AM 17.6 °F - 8.6 °F 68% 30.23 in 10.0 mi Calm Calm - N/A   Clear
5:35 AM 17.6 °F - 8.6 °F 68% 30.23 in 10.0 mi Calm Calm - N/A   Clear
5:55 AM 17.6 °F - 6.8 °F 63% 30.24 in 10.0 mi Calm Calm - N/A   Clear
6:15 AM 17.6 °F - 5.0 °F 58% 30.24 in 10.0 mi Calm Calm - N/A   Clear
6:35 AM 17.6 °F - 6.8 °F 63% 30.25 in 10.0 mi Calm Calm - N/A   Clear
7:15 AM 19.4 °F - 8.6 °F 63% 30.26 in 10.0 mi Calm Calm - N/A   Clear
7:35 AM 23.0 °F - 8.6 °F 54% 30.27 in 10.0 mi Calm Calm - N/A   Clear
7:55 AM 26.6 °F 22.6 °F 8.6 °F 47% 30.28 in 10.0 mi ENE 3.5 mph - N/A   Clear
8:15 AM 32.0 °F 28.7 °F 8.6 °F 38% 30.28 in 10.0 mi ESE 3.5 mph - N/A   Clear
8:35 AM 35.6 °F 30.7 °F 5.0 °F 28% 30.28 in 10.0 mi ENE 5.8 mph - N/A   Clear
8:55 AM 35.6 °F 30.7 °F 3.2 °F 26% 30.28 in 10.0 mi East 5.8 mph - N/A   Clear
9:15 AM 37.4 °F 31.4 °F -0.4 °F 20% 30.29 in 10.0 mi ENE 8.1 mph - N/A   Clear
9:35 AM 37.4 °F 30.3 °F -0.4 °F 20% 30.29 in 10.0 mi ENE 10.4 mph - N/A   Clear
9:55 AM 37.4 °F 29.8 °F -0.4 °F 20% 30.29 in 10.0 mi ENE 11.5 mph - N/A   Clear
10:15 AM 37.4 °F 31.4 °F 1.4 °F 22% 30.29 in 10.0 mi ESE 8.1 mph 17.3 mph N/A   Clear
10:55 AM 39.2 °F 33.6 °F 1.4 °F 21% 30.30 in 10.0 mi East 8.1 mph - N/A   Clear
11:15 AM 39.2 °F 32.5 °F -0.4 °F 19% 30.30 in 10.0 mi East 10.4 mph - N/A   Clear
11:35 AM 41.0 °F 35.8 °F 1.4 °F 19% 30.30 in 10.0 mi East 8.1 mph - N/A   Clear
11:55 AM 41.0 °F 37.1 °F -2.2 °F 16% 30.30 in 10.0 mi NNE 5.8 mph 16.1 mph N/A   Clear
12:15 PM 39.2 °F 33.0 °F -5.8 °F 15% 30.30 in 10.0 mi NNE 9.2 mph 16.1 mph N/A   Clear
12:35 PM 41.0 °F 35.2 °F -0.4 °F 18% 30.29 in 10.0 mi ENE 9.2 mph - N/A   Clear
12:55 PM 41.0 °F 35.8 °F -2.2 °F 16% 30.29 in 10.0 mi NE 8.1 mph - N/A   Clear
1:15 PM 41.0 °F 35.2 °F -5.8 °F 14% 30.29 in 10.0 mi North 9.2 mph - N/A   Clear
1:35 PM 41.0 °F 35.8 °F -4.0 °F 15% 30.28 in 10.0 mi ENE 8.1 mph 16.1 mph N/A   Clear
1:55 PM 41.0 °F 36.4 °F -4.0 °F 15% 30.28 in 10.0 mi NNE 6.9 mph 17.3 mph N/A   Clear
2:15 PM 41.0 °F 37.1 °F -2.2 °F 16% 30.28 in 10.0 mi North 5.8 mph - N/A   Clear
2:35 PM 39.2 °F 33.0 °F -2.2 °F 17% 30.29 in 10.0 mi North 9.2 mph - N/A   Clear
2:55 PM 41.0 °F - -2.2 °F 16% 30.29 in 10.0 mi Calm Calm - N/A   Clear
3:15 PM 41.0 °F 37.1 °F -2.2 °F 16% 30.29 in 10.0 mi NNE 5.8 mph - N/A   Clear
3:35 PM 41.0 °F 35.8 °F -4.0 °F 15% 30.28 in 10.0 mi ENE 8.1 mph 17.3 mph N/A   Clear
3:55 PM 41.0 °F 33.9 °F -4.0 °F 15% 30.28 in 10.0 mi ENE 12.7 mph 21.9 mph N/A   Clear
4:15 PM 41.0 °F 35.2 °F -4.0 °F 15% 30.29 in 10.0 mi NNE 9.2 mph - N/A   Clear
4:35 PM 41.0 °F 36.4 °F -4.0 °F 15% 30.30 in 10.0 mi NNE 6.9 mph - N/A   Clear
4:55 PM 39.2 °F 33.0 °F -5.8 °F 15% 30.30 in 10.0 mi NNE 9.2 mph 16.1 mph N/A   Clear
5:15 PM 39.2 °F 35.0 °F -5.8 °F 15% 30.30 in 10.0 mi NE 5.8 mph - N/A   Clear
5:35 PM 37.4 °F 33.8 °F -7.6 °F 15% 30.31 in 10.0 mi NE 4.6 mph - N/A   Clear
5:55 PM 37.4 °F 31.4 °F -5.8 °F 16% 30.31 in 10.0 mi NE 8.1 mph - N/A   Clear
6:15 PM 35.6 °F 30.7 °F -2.2 °F 20% 30.31 in 10.0 mi East 5.8 mph - N/A   Clear
6:35 PM 35.6 °F 28.0 °F -5.8 °F 17% 30.32 in 10.0 mi NE 10.4 mph - N/A   Clear
6:55 PM 35.6 °F 31.7 °F -4.0 °F 18% 30.32 in 10.0 mi East 4.6 mph 9.2 mph N/A   Clear
7:15 PM 33.8 °F 28.6 °F -4.0 °F 20% 30.33 in 10.0 mi East 5.8 mph - N/A   Clear
7:35 PM 33.8 °F 30.8 °F -2.2 °F 22% 30.33 in 10.0 mi East 3.5 mph - N/A   Clear
7:55 PM 33.8 °F 30.8 °F 1.4 °F 25% 30.33 in 10.0 mi ENE 3.5 mph - N/A   Clear
8:35 PM 32.0 °F - 3.2 °F 30% 30.35 in 10.0 mi Calm Calm - N/A   Clear
8:55 PM 30.2 °F - 5.0 °F 34% 30.36 in 10.0 mi Calm Calm - N/A   Clear
9:15 PM 28.4 °F - 8.6 °F 43% 30.37 in 10.0 mi Calm Calm - N/A   Clear
9:35 PM 28.4 °F - 8.6 °F 43% 30.38 in 10.0 mi Calm Calm - N/A   Clear
10:15 PM 26.6 °F - 10.4 °F 51% 30.38 in 10.0 mi Calm Calm - N/A   Clear
10:35 PM 26.6 °F - 10.4 °F 51% 30.38 in 10.0 mi Calm Calm - N/A   Clear
10:55 PM 26.6 °F - 10.4 °F 51% 30.38 in 10.0 mi Calm Calm - N/A   Clear
11:15 PM 24.8 °F - 8.6 °F 50% 30.37 in 10.0 mi Calm Calm - N/A   Clear
11:35 PM 24.8 °F - 10.4 °F 54% 30.37 in 10.0 mi Calm Calm - N/A   Clear
11:55 PM 23.0 °F - 8.6 °F 54% 30.37 in 10.0 mi Calm Calm - N/A   Clear